Regional Weather Roundup
Issued by NWS

Home | Current Version | Previous Version | Graphics & Text | Print | Product List | Glossary Off
Versions: 1 2 3 4 5 6 7 8 9 10 11 12 13 14 15 16 17 18 19 20 21 22 23 24 25 26 27 28 29 30 31 32 33 34 35 36 37 38 39 40 41 42 43 44 45 46 47 48 49 50

086
ASUS43 KMPX 251401
RWRMN
WEATHER ROUNDUP FOR MINNESOTA
NATIONAL WEATHER SERVICE TWIN CITIES/CHANHASSEN MN
900 AM CDT MON SEP 25 2017


NOTE: "FAIR" INDICATES FEW OR NO CLOUDS BELOW 12,000 FEET WITH NO
SIGNIFICANT WEATHER AND/OR OBSTRUCTIONS TO VISIBILITY. N/A MEANS
CURRENT SKY AND/OR WEATHER CONDITIONS ARE NOT AVAILABLE.

MNZ060>063-068>070-251500-
   Twin Cities Metro

CITY           SKY/WX    TMP DP  RH WIND       PRES   REMARKS
TWIN CITIES    CLOUDY    60  59  96 NW8       30.00R
ST PAUL        CLOUDY    61  59  93 N9        30.01R
CRYSTAL        CLOUDY    57  53  86 NW7       30.00R
BLAINE         LGT RAIN  59  57  94 NW6       30.01R
LAKEVILLE      CLOUDY    59  59 100 NW6       30.00R
EDEN PRAIRIE   LGT RAIN  59  57  93 NW8       30.00R FOG
SOUTH ST PAUL  CLOUDY    60  60 100 NW6       30.00R
LAKE ELMO      CLOUDY    61  59  94 N6        30.01R
$$
MNZ001>005-007-008-013>017-022>024-027-028-251500-
   Northwest Minnesota

CITY           SKY/WX    TMP DP  RH WIND       PRES   REMARKS
BEMIDJI        CLOUDY    47  46  99 NW8       30.07S FOG
HALLOCK          N/A     48  46  93 N10       30.13S
ROSEAU         CLOUDY    46  43  87 NW10      30.11S
WARROAD        CLOUDY    46  43  87 NW8       30.11R
CROOKSTON      CLOUDY    48  46  93 N10       30.12R
FOSSTON        CLOUDY    46  45  93 N7        30.11R
DETROIT LAKES  CLOUDY    46  46 100 N9        30.09S FOG
MOORHEAD       CLOUDY    48  46  93 N9        30.12R
PARK RAPIDS    CLOUDY    50  47  89 NW10      30.06S
MAHNOMEN       RAIN      47  46  98 N7        30.10R
$$
MNZ006-009>011-018-025>026-251500-
   North Central Minnesota

CITY           SKY/WX    TMP DP  RH WIND       PRES   REMARKS
BAUDETTE       CLOUDY    49  49 100 NW9       30.07R
FLAG ISLAND    CLOUDY    48  45  87 NW13      30.08R
INTL FALLS     CLOUDY    51  49  92 NW7       30.03S
WASKISH        CLOUDY    48  46  93 NW6       30.07R
BIG FORK       CLOUDY    50  48  93 CALM      30.06R FOG
LONGVILLE      CLOUDY    52  50  93 N3        30.04S FOG
GRAND RAPIDS   CLOUDY    51  48  89 NW12      30.06S
CRANE LAKE     CLOUDY    50  48  93 CALM      30.04R FOG
ORR            CLOUDY    50  46  87 W7        30.02R
WALKER         CLOUDY    48  47  95 NW7       30.06S FOG
$$
MNZ012-019>021-037-251500-
   Northeast Minnesota

CITY           SKY/WX    TMP DP  RH WIND       PRES   REMARKS
DULUTH         LGT RAIN  52  52 100 NW12      29.99F
ELY            CLOUDY    52  50  93 W6        30.02R
HIBBING        CLOUDY    50  48  93 NW8       30.04R
EVELETH        LGT RAIN  53  51  95 NW7       30.04R
DULUTH HARBOR  CLOUDY    59  54  82 NW5       30.01R
SILVER BAY     DRIZZLE   57  55  94 CALM      29.97R
GRAND MARAIS     N/A     63  58  83 CALM      29.93R
$$
MNZ029>031-032-039>041-046>048-054>057-064-251500-
   West Central Minnesota

CITY           SKY/WX    TMP DP  RH WIND       PRES   REMARKS
FERGUS FALLS   CLOUDY    48  48 100 N10G16    30.09R FOG
WHEATON        CLOUDY    50  46  87 NW10      30.10S
MORRIS         LGT RAIN  52  48  87 N13G18    30.06R
ALEXANDRIA     LGT RAIN  51  49  92 N8        30.06S
ELBOW LAKE     CLOUDY    49  48  95 W12       30.08R
WADENA         CLOUDY    48  48 100 NW6       30.05F
GLENWOOD       DRIZZLE   52  48  87 N8        30.04F
APPLETON       RAIN      52  48  87 NW10G18   30.05R
BENSON         DRIZZLE   52  48  87 N8        30.05S
ORTONVILLE     CLOUDY    50  46  87 N13       30.06F
MADISON        CLOUDY    54  54 100 N14       30.05F
WILLMAR        CLOUDY    54  54 100 NE6       30.05S
$$
MNZ033>034-036-042>043-049>051-058-059-251500-
   Central Minnesota

CITY           SKY/WX    TMP DP  RH WIND       PRES   REMARKS
ST CLOUD       CLOUDY    53  52  96 N5        30.04R
SAUK CENTRE    LGT RAIN  50  49  96 N10       30.05F
PAYNESVILLE    DRIZZLE   52  51  96 N3        30.06R
AITKIN         RAIN      50  48  93 NW5       30.03R
PINE RIVER     DRIZZLE   48  45  87 N5        30.08S
BRAINERD       LGT RAIN  51  49  92 N12       30.03F
STAPLES        LGT RAIN  48  48 100 N8        30.04S
LITTLE FALLS   CLOUDY    50  46  87 NW5       30.06R
LITCHFIELD     DRIZZLE   54  54 100 N7        30.04S
BUFFALO        LGT RAIN  54  51  90 NW7       30.04S
MAPLE LAKE     RAIN      54  54  97 NW5       30.04S
HUTCHINSON     CLOUDY    54  53  97 N6        30.04S
$$
MNZ037-044-045-052-053-251500-
   East Central Minnesota

CITY           SKY/WX    TMP DP  RH WIND       PRES   REMARKS
PRINCETON      CLOUDY    55  54  94 NW6       30.03R
MORA           DRIZZLE   54  52  94 NE3       30.03S
RUSH CITY      CLOUDY    57  55  92 N7        30.01R
MOOSE LAKE     RAIN      54  50  87 NW3       30.00R
HINCKLEY       DRIZZLE   55  54  94 N6        30.01R
CLOQUET        RAIN      54  50  87 NW7       30.01R
MCGREGOR       CLOUDY    52  50  93 NW9       30.03S
$$
MNZ071>073-080-081-089-090-097-098-251500-
   Southwest Minnesota

CITY           SKY/WX    TMP DP  RH WIND       PRES   REMARKS
MONTEVIDEO     LGT RAIN  52  50  93 N7        30.05R
GRANITE FALLS  LGT RAIN  53  51  94 N5        30.06R
CANBY          CLOUDY    51  50  94 N6G16     30.07R
MARSHALL       LGT RAIN  51  49  92 N9        30.06R
REDWOOD FALLS  LGT RAIN  52  50  93 N7        30.04S FOG
OLIVIA         CLOUDY    52  50  93 N6        30.03F
PIPESTONE      CLOUDY    52  48  87 NE13      30.03F
WORTHINGTON    LGT RAIN  51  50  96 N15       29.99F
JACKSON        LGT SNOW  50  50 100 N10G18    30.01F
TRACY          RAIN      51  51  99 N10       30.04F
SLAYTON        RAIN      50  44  80 N10       30.04F
$$
MNZ065>067-074>077-082>085-091>093-251500-
   South Central Minnesota

CITY           SKY/WX    TMP DP  RH WIND       PRES   REMARKS
MANKATO        LGT RAIN  56  55  97 N7        30.01F
NEW ULM        RAIN      54  52  94 N7        30.01F
ST JAMES       LGT RAIN  54  54 100 NW7       30.03S
FAIRMONT       LGT RAIN  55  54  96 N10       30.01S
FARIBAULT      CLOUDY    61  59  94 W6        30.01R FOG
OWATONNA       CLOUDY    61  61 100 NW6       30.00S FOG
WASECA         CLOUDY    59  55  88 N7        30.01F
ALBERT LEA     CLOUDY    63  63 100 N6        29.99S FOG
$$
MNZ078>079-086>088-094>096-251500-
   Southeast Minnesota

CITY           SKY/WX    TMP DP  RH WIND       PRES   REMARKS
ROCHESTER      CLOUDY    67  66  97 N6        30.00R FOG
RED WING       CLOUDY    70  63  78 N3        29.96S
STANTON        CLOUDY    63  61  92 NW6       29.98S
DODGE CENTER   FOG       64  63  94 N3        29.99S VSB 1/4
WINONA         MOSUNNY   70  64  83 NW3       29.97R
AUSTIN         CLOUDY    64  63  94 NW5       29.98S FOG
PRESTON        MOSUNNY   66  62  87 CALM      29.99R
$$
ABBREVIATIONS USED IN REMARKS
   TC - TEMPERATURES IN CELSIUS
  WCI - WIND CHILL INDEX
   HX - HEAT INDEX
  VSB - VISIBILITY
$$




USA.gov is the U.S. government's official web portal to all federal, state and local government web resources and services.